Weather History for Grand Island, NE

Change the Weather History Date:

Saturday, July 6, 2013

  Actual Average Record
Temperature  
Mean Temperature 82 °F 76 °F  
Max Temperature 95 °F 88 °F 105 °F (2001)
Min Temperature 69 °F 64 °F 49 °F (1931)
Degree Days  
Heating Degree Days 0 0  
Month to date heating degree days 0 0  
Since 1 June heating degree days 21 24  
Since 1 July heating degree days 0 0  
Cooling Degree Days 17 11  
Month to date cooling degree days 63 66  
Year to date cooling degree days 417 344  
Since 1 June cooling degree days 322 279  
Growing Degree Days 32 (Base 50)    
Moisture  
Dew Point 60 °F    
Average Humidity 50    
Maximum Humidity 69    
Minimum Humidity 30    
Precipitation  
Precipitation 0.02 in 0.12 in 2.04 in (1908)
Month to date precipitation 0.05 0.71  
Year to date precipitation 15.05 14.96  
Snow  
Snow 0.00 in 0.00 in - ()
Month to date snowfall 0.0 0.0  
Since 1 June snowfall 0.0 0.0  
Since 1 July snowfall 0.0 0.0  
Snow Depth 0.00 in    
Sea Level Pressure  
Sea Level Pressure 29.75 in    
Wind  
Wind Speed 14 mph (SSE)    
Max Wind Speed 21 mph    
Max Gust Speed 26 mph    
Visibility 10 miles    
Events Rain    
T = Trace of Precipitation, MM = Missing Value Source: NWS Daily Summary

Daily Weather History Graph

Daily Weather History Graph

Search for Another Location

Airport:

Trip Planner

Search our weather history database for the weather conditions in past years. The results will help you decide how hot, cold, wet, or windy it might be!

Date:

Astronomy

Jul. 06, 2013 Rise Set
Actual Time 6:07 AM CDT 9:07 PM CDT
Civil Twilight 5:34 AM CDT 9:41 PM CDT
Nautical Twilight 4:52 AM CDT 10:23 PM CDT
Astronomical Twilight 4:03 AM CDT 11:12 PM CDT
Moon 4:55 AM CDT (7/6) 7:50 PM CDT (7/6)
Length of Visible Light 16h 06m
Length of Day
14h 59m
Waning Crescent, 2% of the Moon is Illuminated
Jul 6
Waning Crescent
Jul 8
New
Jul 15
First Quarter
Jul 22
Full
Jul 29
Last Quarter

Hourly Weather History & Observations

Time (CDT) Temp. Heat Index Dew Point Humidity Pressure Visibility Wind Dir Wind Speed Gust Speed Precip Events Conditions
12:53 AM 78.1 °F - 55.9 °F 46% 29.78 in 10.0 mi SSE 16.1 mph 23.0 mph N/A   Clear
1:53 AM 75.9 °F - 55.0 °F 48% 29.76 in 10.0 mi SSE 13.8 mph - N/A   Clear
2:53 AM 75.0 °F - 55.9 °F 51% 29.77 in 10.0 mi SSE 17.3 mph 23.0 mph N/A   Partly Cloudy
3:53 AM 73.9 °F - 57.0 °F 55% 29.75 in 10.0 mi South 13.8 mph - N/A   Clear
4:53 AM 72.0 °F - 57.9 °F 61% 29.78 in 10.0 mi South 9.2 mph - N/A   Clear
5:53 AM 71.1 °F - 59.0 °F 66% 29.78 in 10.0 mi SSE 8.1 mph - N/A   Clear
6:53 AM 71.1 °F - 60.1 °F 68% 29.79 in 10.0 mi South 10.4 mph - N/A   Partly Cloudy
7:53 AM 69.1 °F - 64.0 °F 84% 29.75 in 7.0 mi South 12.7 mph - 0.02 in Rain Light Rain
8:53 AM 73.9 °F - 64.0 °F 71% 29.75 in 10.0 mi South 15.0 mph 20.7 mph 0.00 in   Clear
9:53 AM 79.0 °F - 62.1 °F 56% 29.75 in 10.0 mi South 17.3 mph 24.2 mph N/A   Clear
10:53 AM 84.0 °F 84.4 °F 61.0 °F 46% 29.74 in 10.0 mi South 16.1 mph 25.3 mph N/A   Clear
11:53 AM 89.1 °F 89.0 °F 61.0 °F 39% 29.73 in 10.0 mi South 16.1 mph 24.2 mph N/A   Clear
12:53 PM 91.0 °F 90.0 °F 57.9 °F 33% 29.73 in 10.0 mi South 15.0 mph - N/A   Clear
1:53 PM 93.0 °F 92.0 °F 57.9 °F 31% 29.73 in 10.0 mi SSE 16.1 mph - N/A   Clear
2:53 PM 93.9 °F 92.9 °F 57.9 °F 30% 29.73 in 10.0 mi South 19.6 mph 24.2 mph N/A   Clear
3:53 PM 93.9 °F 93.2 °F 59.0 °F 31% 29.72 in 10.0 mi South 18.4 mph 23.0 mph N/A   Clear
4:53 PM 95.0 °F 95.2 °F 61.0 °F 32% 29.71 in 10.0 mi South 11.5 mph - N/A   Clear
5:53 PM 93.9 °F 94.8 °F 62.1 °F 35% 29.70 in 10.0 mi SSE 12.7 mph - N/A   Clear
6:53 PM 90.0 °F 90.6 °F 63.0 °F 40% 29.70 in 10.0 mi SSE 13.8 mph - N/A   Clear
7:53 PM 86.0 °F 86.8 °F 63.0 °F 46% 29.72 in 10.0 mi South 15.0 mph - N/A   Clear
8:53 PM 82.0 °F 83.1 °F 63.0 °F 52% 29.73 in 10.0 mi SSE 9.2 mph - N/A   Clear
9:53 PM 80.1 °F 81.5 °F 63.0 °F 56% 29.74 in 10.0 mi SSE 13.8 mph - N/A   Clear
10:53 PM 78.1 °F - 64.0 °F 62% 29.76 in 10.0 mi SSE 13.8 mph - N/A   Clear
11:53 PM 75.9 °F - 64.9 °F 69% 29.77 in 10.0 mi SSE 10.4 mph - N/A   Clear